Location: Unspecified
(43.4680°N, 87.1740°E)
Time: 05:52:11
(UTC+00:00)

Cosmos 1898 Rocket - Pass Details

Date: 17 April 2021
Orbit: 752 x 784 km, 74.0° (Epoch: 16 May)

Event Time Altitude Azimuth Distance (km) Brightness Sun altitude
Exits shadow 20:39:09 41° 137° (SE) 1,095 4.2 -26.1°
Maximum altitude 20:40:10 47° 104° (ESE) 1,010 4.2 -26.0°
Drops below altitude 10° 20:45:12 10° 32° (NNE) 2,323 7.0 -25.4°
Sets 20:47:40 0° 26° (NNE) 3,260 8.0 -25.1°
